St. Elmo — WDG2405 — position and weather

sailwx.info

Track history (hours):
 
Tides and Currents Weather Stations Pressure Air Temp Water Temp Dewpoint Dewpoint Depression Visibility Wind Speed Wind Dir Waves Ship Positions

St. Elmo

Owner: Marquette Transportation Company Gulf-Inland, LLC, Jefferson, LA. More information available from US FCC via Universal Licensing System and Coast Guard Vessel Documentation Center.

Last reported at 2014-Oct-30 16:29 UTC. Time now 2014-Oct-30 22:59 UTC.
Position N 29°32' W 094°54'.

MMSI: 367515330.

Date/timePositionNaut miles runAvg speedWind from/ knotsBaromVisibWave heightAir tempDewpointWater temp
2014-Oct-30 16:29N 29°32' W 094°54'5 5.1
2014-Oct-30 15:33N 29°36' W 094°57'4 4.4
2014-Oct-30 14:33N 29°37' W 095°01'0 0.1
2014-Oct-30 13:33N 29°37' W 095°01'0 0.0
2014-Oct-30 12:33N 29°37' W 095°01'0 0.0
2014-Oct-30 11:33N 29°37' W 095°01'0 0.0
2014-Oct-30 10:33N 29°37' W 095°01'0 0.0
2014-Oct-30 09:33N 29°37' W 095°01'0 0.0
2014-Oct-30 08:33N 29°37' W 095°01'0 0.0
2014-Oct-30 07:33N 29°37' W 095°01'0 0.0
2014-Oct-30 06:33N 29°37' W 095°01'0 0.0
2014-Oct-30 05:33N 29°37' W 095°01'0 0.0
2014-Oct-30 04:33N 29°37' W 095°01'0 0.0
2014-Oct-30 03:33N 29°37' W 095°01'0 0.0
2014-Oct-30 02:33N 29°37' W 095°01'0 0.0
2014-Oct-30 01:33N 29°37' W 095°01'0 0.0
2014-Oct-30 00:33N 29°37' W 095°01'0 0.0
2014-Oct-29 23:33N 29°37' W 095°01'0 0.0
2014-Oct-29 22:33N 29°37' W 095°01'0 0.0
2014-Oct-29 21:33N 29°37' W 095°01'0 0.0
2014-Oct-29 20:33N 29°37' W 095°01'0 0.0
2014-Oct-29 19:33N 29°37' W 095°01'0 0.0
2014-Oct-29 18:33N 29°37' W 095°01'0 0.0
2014-Oct-29 17:33N 29°37' W 095°01'0 0.0
2014-Oct-29 16:33N 29°37' W 095°01'0 0.0
2014-Oct-29 15:33N 29°37' W 095°01'0 0.0
2014-Oct-29 14:33N 29°37' W 095°01'0 0.0
2014-Oct-29 13:33N 29°37' W 095°01'0 0.0
2014-Oct-29 12:33N 29°37' W 095°01'0 0.0
2014-Oct-29 11:33N 29°37' W 095°01'0 0.0
2014-Oct-29 10:33N 29°37' W 095°01'0 0.0
2014-Oct-29 09:33N 29°37' W 095°01'0 0.0
2014-Oct-29 08:33N 29°37' W 095°01'0 0.0
2014-Oct-29 07:33N 29°37' W 095°01'0 0.0
2014-Oct-29 06:33N 29°37' W 095°01'0 0.0
2014-Oct-29 05:33N 29°37' W 095°01'0 0.0
2014-Oct-29 04:33N 29°37' W 095°01'0 0.0
2014-Oct-29 03:33N 29°37' W 095°01'0 0.0
2014-Oct-29 02:33N 29°37' W 095°01'0 0.0
2014-Oct-29 01:33N 29°37' W 095°01'0 0.0
2014-Oct-29 00:33N 29°37' W 095°01'0 0.0
2014-Oct-28 23:33N 29°37' W 095°01'0 0.0
2014-Oct-28 22:33N 29°37' W 095°01'0 0.1
2014-Oct-28 21:33N 29°37' W 095°01'0 0.1
2014-Oct-28 20:33N 29°37' W 095°01'0 0.0
2014-Oct-28 19:33N 29°37' W 095°01'0 0.1
2014-Oct-28 18:33N 29°37' W 095°01'0 0.0
2014-Oct-28 17:33N 29°37' W 095°01'0 0.0
2014-Oct-28 16:33N 29°37' W 095°01'0 0.0
2014-Oct-28 15:33N 29°37' W 095°01'0 0.0
2014-Oct-28 14:33N 29°37' W 095°01'0 0.0
2014-Oct-28 13:33N 29°37' W 095°01'0 0.0
2014-Oct-28 12:33N 29°37' W 095°01'0 0.0
2014-Oct-28 00:20N 29°37' W 095°01'3 4.0
2014-Oct-27 23:33N 29°38' W 094°58'6 6.1
2014-Oct-27 22:33N 29°44' W 095°02'4 0.6
2014-Oct-27 15:33N 29°46' W 095°06'0 0.0
2014-Oct-27 14:06N 29°46' W 095°06'0 0.0
2014-Oct-27 13:24N 29°46' W 095°06'0 0.0
2014-Oct-27 12:33N 29°46' W 095°06'0 0.0
2014-Oct-27 11:33N 29°46' W 095°06'0 0.0
2014-Oct-27 09:32N 29°46' W 095°06'0 0.0
2014-Oct-27 08:24N 29°46' W 095°06'1 0.3
2014-Oct-27 06:07N 29°45' W 095°06'1 0.9
2014-Oct-27 05:30N 29°46' W 095°06'0 0.0
2014-Oct-27 04:33N 29°46' W 095°06'0 0.0
2014-Oct-26 22:12N 29°46' W 095°06'0 0.0
2014-Oct-26 18:15N 29°46' W 095°06'0 0.0
2014-Oct-26 15:19N 29°46' W 095°06'0 0.0
2014-Oct-26 14:33N 29°46' W 095°06'0 0.0
2014-Oct-26 13:28N 29°46' W 095°06'0 0.0
2014-Oct-26 12:32N 29°46' W 095°06'0 0.0
2014-Oct-26 06:28N 29°46' W 095°06'0 0.0
2014-Oct-26 04:33N 29°46' W 095°06'0 0.0
2014-Oct-26 03:22N 29°46' W 095°06'0 0.0
2014-Oct-26 01:33N 29°46' W 095°06'0 0.0
2014-Oct-26 00:24N 29°46' W 095°06'0 0.0
2014-Oct-25 21:08N 29°46' W 095°06'1 0.1
2014-Oct-25 14:19N 29°45' W 095°06'1 0.8
2014-Oct-25 13:33N 29°46' W 095°06'0 0.0
2014-Oct-25 12:33N 29°46' W 095°06'0 0.0
2014-Oct-25 11:33N 29°46' W 095°06'0 0.0
2014-Oct-25 10:33N 29°46' W 095°06'0 0.0
2014-Oct-25 09:33N 29°46' W 095°06'0 0.0
2014-Oct-25 08:33N 29°46' W 095°06'0 0.0
2014-Oct-25 07:33N 29°46' W 095°06'0 0.0
2014-Oct-25 06:33N 29°46' W 095°06'0 0.0
2014-Oct-25 05:33N 29°46' W 095°06'0 0.0
2014-Oct-25 04:33N 29°46' W 095°06'0 0.0
2014-Oct-25 03:33N 29°46' W 095°06'0 0.0
2014-Oct-25 02:33N 29°46' W 095°06'0 0.0
2014-Oct-25 01:30N 29°46' W 095°05'0 0.0
2014-Oct-25 00:33N 29°46' W 095°06'0 0.0
2014-Oct-24 23:31N 29°46' W 095°05'3 3.6
2014-Oct-24 22:33N 29°44' W 095°02'6 5.6
2014-Oct-24 21:33N 29°40' W 094°58'6 6.2
2014-Oct-24 20:33N 29°34' W 094°55'12 1.6
2014-Oct-24 13:09N 29°22' W 094°55'9 0.5
2014-Oct-23 20:05N 29°30' W 094°52'3 5.1
2014-Oct-23 19:33N 29°32' W 094°54'5 5.1
2014-Oct-23 18:33N 29°37' W 094°57'3 3.5
2014-Oct-23 17:33N 29°37' W 095°01'0 0.2
2014-Oct-23 16:33N 29°37' W 095°01'0 0.2
2014-Oct-23 15:31N 29°37' W 095°02'0 0.0
2014-Oct-23 14:33N 29°37' W 095°02'0 0.0
2014-Oct-23 13:32N 29°37' W 095°02'0 0.0
2014-Oct-23 12:32N 29°37' W 095°02'0 0.0
2014-Oct-23 11:33N 29°37' W 095°02'0 0.0
2014-Oct-23 10:31N 29°37' W 095°02'0 0.0
2014-Oct-23 09:33N 29°37' W 095°02'0 0.0
2014-Oct-23 08:33N 29°37' W 095°02'0 0.0
2014-Oct-23 07:32N 29°37' W 095°02'0 0.0
2014-Oct-23 06:33N 29°37' W 095°02'0 0.0
2014-Oct-23 05:32N 29°37' W 095°02'0 0.0
2014-Oct-23 04:33N 29°37' W 095°02'0 0.0
2014-Oct-23 03:33N 29°37' W 095°02'0 0.0
2014-Oct-23 02:33N 29°37' W 095°02'0 0.1
2014-Oct-23 01:33N 29°37' W 095°01'1 1.0
2014-Oct-23 00:33N 29°37' W 095°00'3 3.4
2014-Oct-22 23:34N 29°40' W 094°59'5 5.2
2014-Oct-22 22:33N 29°44' W 095°03'3 3.4
2014-Oct-22 21:33N 29°46' W 095°05'0 0.0
2014-Oct-22 20:33N 29°46' W 095°05'0 0.0
2014-Oct-22 19:33N 29°46' W 095°05'0 0.0
2014-Oct-22 18:33N 29°46' W 095°05'0 0.0
2014-Oct-22 17:33N 29°46' W 095°05'0 0.0
2014-Oct-22 16:33N 29°46' W 095°05'0 0.0
2014-Oct-22 15:32N 29°46' W 095°05'0 0.0
2014-Oct-22 14:33N 29°46' W 095°05'0 0.0
2014-Oct-22 13:33N 29°46' W 095°05'0 0.0
2014-Oct-22 12:33N 29°46' W 095°05'0 0.0
2014-Oct-22 11:31N 29°46' W 095°05'0 0.0
2014-Oct-22 10:33N 29°46' W 095°05'0 0.0
2014-Oct-22 09:31N 29°46' W 095°05'0 0.0
2014-Oct-22 08:33N 29°46' W 095°05'0 0.0
2014-Oct-22 07:29N 29°46' W 095°05'0 0.0
2014-Oct-22 06:32N 29°46' W 095°05'0 0.0
2014-Oct-22 05:33N 29°46' W 095°05'0 0.0
2014-Oct-22 04:30N 29°46' W 095°05'0 0.0
2014-Oct-22 03:33N 29°46' W 095°05'0 0.0
2014-Oct-22 02:33N 29°46' W 095°05'0 0.0
2014-Oct-22 01:33N 29°46' W 095°05'0 0.0
2014-Oct-22 00:31N 29°46' W 095°05'0 0.0
2014-Oct-21 23:33N 29°46' W 095°05'0 0.0
2014-Oct-21 22:33N 29°46' W 095°05'0 0.0
2014-Oct-21 21:33N 29°46' W 095°05'0 0.0
2014-Oct-21 20:33N 29°46' W 095°05'0 0.0
2014-Oct-21 19:33N 29°46' W 095°05'0 0.0
2014-Oct-21 18:33N 29°46' W 095°05'0 0.0
2014-Oct-21 17:31N 29°46' W 095°05'0 0.0
2014-Oct-21 16:33N 29°46' W 095°05'0 0.0
2014-Oct-21 15:33N 29°46' W 095°05'0 0.0
2014-Oct-21 14:33N 29°46' W 095°05'0 0.0
2014-Oct-21 13:33N 29°46' W 095°05'0 0.0
2014-Oct-21 12:33N 29°46' W 095°05'0 0.0
2014-Oct-21 11:33N 29°46' W 095°05'0 0.0
2014-Oct-21 10:33N 29°46' W 095°05'0 0.0
2014-Oct-21 09:32N 29°46' W 095°05'0 0.0
2014-Oct-21 08:33N 29°46' W 095°05'0 0.0
2014-Oct-21 07:33N 29°46' W 095°05'0 0.0
2014-Oct-21 06:33N 29°46' W 095°05'0 0.0
2014-Oct-21 05:33N 29°46' W 095°05'0 0.0
2014-Oct-21 04:32N 29°46' W 095°05'0 0.0
2014-Oct-21 03:33N 29°46' W 095°05'0 0.0
2014-Oct-21 02:33N 29°46' W 095°05'0 0.0
2014-Oct-21 01:33N 29°46' W 095°05'0 0.0
2014-Oct-21 00:33N 29°46' W 095°05'0 0.0
2014-Oct-20 23:31N 29°46' W 095°05'0 0.0
2014-Oct-20 22:28N 29°46' W 095°05'0 0.0
2014-Oct-20 21:31N 29°46' W 095°05'0 0.0
2014-Oct-20 19:24N 29°46' W 095°05'0 0.0
2014-Oct-20 18:33N 29°46' W 095°05'0 0.0
2014-Oct-20 17:31N 29°46' W 095°05'  
Track history (hours):
 
Tides and Currents Weather Stations Pressure Air Temp Water Temp Dewpoint Dewpoint Depression Visibility Wind Speed Wind Dir Waves Ship Positions

St. Elmo

Owner: Marquette Transportation Company Gulf-Inland, LLC, Jefferson, LA. More information available from US FCC via Universal Licensing System and Coast Guard Vessel Documentation Center.

Last reported at 2014-Oct-30 16:29 UTC. Time now 2014-Oct-30 22:59 UTC.
Position N 29°32' W 094°54'.

MMSI: 367515330.

Date/timePositionNaut miles runAvg speedWind from/ knotsBaromVisibWave heightAir tempDewpointWater temp
2014-Oct-30 16:29N 29°32' W 094°54'5 5.1
2014-Oct-30 15:33N 29°36' W 094°57'4 4.4
2014-Oct-30 14:33N 29°37' W 095°01'0 0.1
2014-Oct-30 13:33N 29°37' W 095°01'0 0.0
2014-Oct-30 12:33N 29°37' W 095°01'0 0.0
2014-Oct-30 11:33N 29°37' W 095°01'0 0.0
2014-Oct-30 10:33N 29°37' W 095°01'0 0.0
2014-Oct-30 09:33N 29°37' W 095°01'0 0.0
2014-Oct-30 08:33N 29°37' W 095°01'0 0.0
2014-Oct-30 07:33N 29°37' W 095°01'0 0.0
2014-Oct-30 06:33N 29°37' W 095°01'0 0.0
2014-Oct-30 05:33N 29°37' W 095°01'0 0.0
2014-Oct-30 04:33N 29°37' W 095°01'0 0.0
2014-Oct-30 03:33N 29°37' W 095°01'0 0.0
2014-Oct-30 02:33N 29°37' W 095°01'0 0.0
2014-Oct-30 01:33N 29°37' W 095°01'0 0.0
2014-Oct-30 00:33N 29°37' W 095°01'0 0.0
2014-Oct-29 23:33N 29°37' W 095°01'0 0.0
2014-Oct-29 22:33N 29°37' W 095°01'0 0.0
2014-Oct-29 21:33N 29°37' W 095°01'0 0.0
2014-Oct-29 20:33N 29°37' W 095°01'0 0.0
2014-Oct-29 19:33N 29°37' W 095°01'0 0.0
2014-Oct-29 18:33N 29°37' W 095°01'0 0.0
2014-Oct-29 17:33N 29°37' W 095°01'0 0.0
2014-Oct-29 16:33N 29°37' W 095°01'0 0.0
2014-Oct-29 15:33N 29°37' W 095°01'0 0.0
2014-Oct-29 14:33N 29°37' W 095°01'0 0.0
2014-Oct-29 13:33N 29°37' W 095°01'0 0.0
2014-Oct-29 12:33N 29°37' W 095°01'0 0.0
2014-Oct-29 11:33N 29°37' W 095°01'0 0.0
2014-Oct-29 10:33N 29°37' W 095°01'0 0.0
2014-Oct-29 09:33N 29°37' W 095°01'0 0.0
2014-Oct-29 08:33N 29°37' W 095°01'0 0.0
2014-Oct-29 07:33N 29°37' W 095°01'0 0.0
2014-Oct-29 06:33N 29°37' W 095°01'0 0.0
2014-Oct-29 05:33N 29°37' W 095°01'0 0.0
2014-Oct-29 04:33N 29°37' W 095°01'0 0.0
2014-Oct-29 03:33N 29°37' W 095°01'0 0.0
2014-Oct-29 02:33N 29°37' W 095°01'0 0.0
2014-Oct-29 01:33N 29°37' W 095°01'0 0.0
2014-Oct-29 00:33N 29°37' W 095°01'0 0.0
2014-Oct-28 23:33N 29°37' W 095°01'0 0.0
2014-Oct-28 22:33N 29°37' W 095°01'0 0.1
2014-Oct-28 21:33N 29°37' W 095°01'0 0.1
2014-Oct-28 20:33N 29°37' W 095°01'0 0.0
2014-Oct-28 19:33N 29°37' W 095°01'0 0.1
2014-Oct-28 18:33N 29°37' W 095°01'0 0.0
2014-Oct-28 17:33N 29°37' W 095°01'0 0.0
2014-Oct-28 16:33N 29°37' W 095°01'0 0.0
2014-Oct-28 15:33N 29°37' W 095°01'0 0.0
2014-Oct-28 14:33N 29°37' W 095°01'0 0.0
2014-Oct-28 13:33N 29°37' W 095°01'0 0.0
2014-Oct-28 12:33N 29°37' W 095°01'0 0.0
2014-Oct-28 00:20N 29°37' W 095°01'3 4.0
2014-Oct-27 23:33N 29°38' W 094°58'6 6.1
2014-Oct-27 22:33N 29°44' W 095°02'4 0.6
2014-Oct-27 15:33N 29°46' W 095°06'0 0.0
2014-Oct-27 14:06N 29°46' W 095°06'0 0.0
2014-Oct-27 13:24N 29°46' W 095°06'0 0.0
2014-Oct-27 12:33N 29°46' W 095°06'0 0.0
2014-Oct-27 11:33N 29°46' W 095°06'0 0.0
2014-Oct-27 09:32N 29°46' W 095°06'0 0.0
2014-Oct-27 08:24N 29°46' W 095°06'1 0.3
2014-Oct-27 06:07N 29°45' W 095°06'1 0.9
2014-Oct-27 05:30N 29°46' W 095°06'0 0.0
2014-Oct-27 04:33N 29°46' W 095°06'0 0.0
2014-Oct-26 22:12N 29°46' W 095°06'0 0.0
2014-Oct-26 18:15N 29°46' W 095°06'0 0.0
2014-Oct-26 15:19N 29°46' W 095°06'0 0.0
2014-Oct-26 14:33N 29°46' W 095°06'0 0.0
2014-Oct-26 13:28N 29°46' W 095°06'0 0.0
2014-Oct-26 12:32N 29°46' W 095°06'0 0.0
2014-Oct-26 06:28N 29°46' W 095°06'0 0.0
2014-Oct-26 04:33N 29°46' W 095°06'0 0.0
2014-Oct-26 03:22N 29°46' W 095°06'0 0.0
2014-Oct-26 01:33N 29°46' W 095°06'0 0.0
2014-Oct-26 00:24N 29°46' W 095°06'0 0.0
2014-Oct-25 21:08N 29°46' W 095°06'1 0.1
2014-Oct-25 14:19N 29°45' W 095°06'1 0.8
2014-Oct-25 13:33N 29°46' W 095°06'0 0.0
2014-Oct-25 12:33N 29°46' W 095°06'0 0.0
2014-Oct-25 11:33N 29°46' W 095°06'0 0.0
2014-Oct-25 10:33N 29°46' W 095°06'0 0.0
2014-Oct-25 09:33N 29°46' W 095°06'0 0.0
2014-Oct-25 08:33N 29°46' W 095°06'0 0.0
2014-Oct-25 07:33N 29°46' W 095°06'0 0.0
2014-Oct-25 06:33N 29°46' W 095°06'0 0.0
2014-Oct-25 05:33N 29°46' W 095°06'0 0.0
2014-Oct-25 04:33N 29°46' W 095°06'0 0.0
2014-Oct-25 03:33N 29°46' W 095°06'0 0.0
2014-Oct-25 02:33N 29°46' W 095°06'0 0.0
2014-Oct-25 01:30N 29°46' W 095°05'0 0.0
2014-Oct-25 00:33N 29°46' W 095°06'0 0.0
2014-Oct-24 23:31N 29°46' W 095°05'3 3.6
2014-Oct-24 22:33N 29°44' W 095°02'6 5.6
2014-Oct-24 21:33N 29°40' W 094°58'6 6.2
2014-Oct-24 20:33N 29°34' W 094°55'12 1.6
2014-Oct-24 13:09N 29°22' W 094°55'9 0.5
2014-Oct-23 20:05N 29°30' W 094°52'3 5.1
2014-Oct-23 19:33N 29°32' W 094°54'5 5.1
2014-Oct-23 18:33N 29°37' W 094°57'3 3.5
2014-Oct-23 17:33N 29°37' W 095°01'0 0.2
2014-Oct-23 16:33N 29°37' W 095°01'0 0.2
2014-Oct-23 15:31N 29°37' W 095°02'0 0.0
2014-Oct-23 14:33N 29°37' W 095°02'0 0.0
2014-Oct-23 13:32N 29°37' W 095°02'0 0.0
2014-Oct-23 12:32N 29°37' W 095°02'0 0.0
2014-Oct-23 11:33N 29°37' W 095°02'0 0.0
2014-Oct-23 10:31N 29°37' W 095°02'0 0.0
2014-Oct-23 09:33N 29°37' W 095°02'0 0.0
2014-Oct-23 08:33N 29°37' W 095°02'0 0.0
2014-Oct-23 07:32N 29°37' W 095°02'0 0.0
2014-Oct-23 06:33N 29°37' W 095°02'0 0.0
2014-Oct-23 05:32N 29°37' W 095°02'0 0.0
2014-Oct-23 04:33N 29°37' W 095°02'0 0.0
2014-Oct-23 03:33N 29°37' W 095°02'0 0.0
2014-Oct-23 02:33N 29°37' W 095°02'0 0.1
2014-Oct-23 01:33N 29°37' W 095°01'1 1.0
2014-Oct-23 00:33N 29°37' W 095°00'3 3.4
2014-Oct-22 23:34N 29°40' W 094°59'5 5.2
2014-Oct-22 22:33N 29°44' W 095°03'3 3.4
2014-Oct-22 21:33N 29°46' W 095°05'0 0.0
2014-Oct-22 20:33N 29°46' W 095°05'0 0.0
2014-Oct-22 19:33N 29°46' W 095°05'0 0.0
2014-Oct-22 18:33N 29°46' W 095°05'0 0.0
2014-Oct-22 17:33N 29°46' W 095°05'0 0.0
2014-Oct-22 16:33N 29°46' W 095°05'0 0.0
2014-Oct-22 15:32N 29°46' W 095°05'0 0.0
2014-Oct-22 14:33N 29°46' W 095°05'0 0.0
2014-Oct-22 13:33N 29°46' W 095°05'0 0.0
2014-Oct-22 12:33N 29°46' W 095°05'0 0.0
2014-Oct-22 11:31N 29°46' W 095°05'0 0.0
2014-Oct-22 10:33N 29°46' W 095°05'0 0.0
2014-Oct-22 09:31N 29°46' W 095°05'0 0.0
2014-Oct-22 08:33N 29°46' W 095°05'0 0.0
2014-Oct-22 07:29N 29°46' W 095°05'0 0.0
2014-Oct-22 06:32N 29°46' W 095°05'0 0.0
2014-Oct-22 05:33N 29°46' W 095°05'0 0.0
2014-Oct-22 04:30N 29°46' W 095°05'0 0.0
2014-Oct-22 03:33N 29°46' W 095°05'0 0.0
2014-Oct-22 02:33N 29°46' W 095°05'0 0.0
2014-Oct-22 01:33N 29°46' W 095°05'0 0.0
2014-Oct-22 00:31N 29°46' W 095°05'0 0.0
2014-Oct-21 23:33N 29°46' W 095°05'0 0.0
2014-Oct-21 22:33N 29°46' W 095°05'0 0.0
2014-Oct-21 21:33N 29°46' W 095°05'0 0.0
2014-Oct-21 20:33N 29°46' W 095°05'0 0.0
2014-Oct-21 19:33N 29°46' W 095°05'0 0.0
2014-Oct-21 18:33N 29°46' W 095°05'0 0.0
2014-Oct-21 17:31N 29°46' W 095°05'0 0.0
2014-Oct-21 16:33N 29°46' W 095°05'0 0.0
2014-Oct-21 15:33N 29°46' W 095°05'0 0.0
2014-Oct-21 14:33N 29°46' W 095°05'0 0.0
2014-Oct-21 13:33N 29°46' W 095°05'0 0.0
2014-Oct-21 12:33N 29°46' W 095°05'0 0.0
2014-Oct-21 11:33N 29°46' W 095°05'0 0.0
2014-Oct-21 10:33N 29°46' W 095°05'0 0.0
2014-Oct-21 09:32N 29°46' W 095°05'0 0.0
2014-Oct-21 08:33N 29°46' W 095°05'0 0.0
2014-Oct-21 07:33N 29°46' W 095°05'0 0.0
2014-Oct-21 06:33N 29°46' W 095°05'0 0.0
2014-Oct-21 05:33N 29°46' W 095°05'0 0.0
2014-Oct-21 04:32N 29°46' W 095°05'0 0.0
2014-Oct-21 03:33N 29°46' W 095°05'0 0.0
2014-Oct-21 02:33N 29°46' W 095°05'0 0.0
2014-Oct-21 01:33N 29°46' W 095°05'0 0.0
2014-Oct-21 00:33N 29°46' W 095°05'0 0.0
2014-Oct-20 23:31N 29°46' W 095°05'0 0.0
2014-Oct-20 22:28N 29°46' W 095°05'0 0.0
2014-Oct-20 21:31N 29°46' W 095°05'0 0.0
2014-Oct-20 19:24N 29°46' W 095°05'0 0.0
2014-Oct-20 18:33N 29°46' W 095°05'0 0.0
2014-Oct-20 17:31N 29°46' W 095°05'  

Dump ship's entire track history